XW-3 (CAS-9)

Last updated on Mon Sep 21 2026 00:03:14 GMT+0000 (Coordinated Universal Time)

1 50466U 21131B 26263.57289991 .00000348 00000+0 12090-3 0 9997 2 50466 98.4967 355.4428 0004468 156.8203 203.3189 14.41429066248854
UTC large
Height (km)
Speed (km/s)
/
Latitude / Longitude
Inclination (degrees)
Orbital Period (minutes)
Azimuth
Elevation
Range (km)
Doppler Factor

Next 0 passes for location: London (51.5072 / 0.1276)

No passes found over London.
XW-3 (CAS-9)